ソーホー彗星

C/1996 Q2 ( SOHO )

English version
Home page
Updated on May 12, 1997

---------------------------------------------------------------------

・ プロフィール

発見日 1996年8月20日
発見光度
発見者 SOHO-LASCO coronagraph C3

・ 軌道要素

T 1996 Aug. 22.13428 TT                                 Marsden
q   0.0046014            (2000.0)            P               Q
                   Peri.   47.04646     +0.18174301     -0.90255453
                   Node   321.66763     -0.98032402     -0.13520168
e   1.0            Incl.  140.99753     +0.07703443     +0.40879803
>From 15 observations 1996 Aug. 20-21.

---------------------------------------------------------------------

軌道要素は Dr. Brian G. Marsden の計算によるもので、 M.P.E.C. 1997-J06 に掲載されたものです。

---------------------------------------------------------------------

Copyright(C) Seiichi Yoshida (comet@aerith.net). All rights reserved.